Weather History for Deadhorse, AK

Change the Weather History Date:

Saturday, November 2, 2013

  Actual Average Record
Temperature  
Mean Temperature 4 °F -  
Max Temperature 14 °F 10 °F 27 °F (2011)
Min Temperature -7 °F 0 °F -26 °F (1989)
Degree Days  
Heating Degree Days 62    
Moisture  
Dew Point -1 °F    
Average Humidity 84    
Maximum Humidity 92    
Minimum Humidity 79    
Precipitation  
Precipitation 0.00 in - - ()
Sea Level Pressure  
Sea Level Pressure 29.88 in    
Wind  
Wind Speed 7 mph (South)    
Max Wind Speed 12 mph    
Max Gust Speed -    
Visibility 10 miles    
Events Snow    
Averages and records for this station are not official NWS values.
T = Trace of Precipitation, MM = Missing Value Source: NWS Daily Summary

Daily Weather History Graph

Daily Weather History Graph

Search for Another Location

Airport:

Trip Planner

Search our weather history database for the weather conditions in past years. The results will help you decide how hot, cold, wet, or windy it might be!

Date:

Astronomy

Nov. 02, 2013 Rise Set
Actual Time 10:34 AM AKDT 4:38 PM AKDT
Civil Twilight 9:17 AM AKDT 5:56 PM AKDT
Nautical Twilight 8:01 AM AKDT 7:11 PM AKDT
Astronomical Twilight 6:50 AM AKDT 8:22 PM AKDT
Moon 9:23 AM AKDT (11/2) 4:26 PM AKDT (11/2)
Length of Visible Light 8h 38m
Length of Day
6h 04m
Waning Crescent, 1% of the Moon is Illuminated
Nov 2
Waning Crescent
Nov 3
New
Nov 9
First Quarter
Nov 17
Full
Nov 25
Last Quarter

Hourly Weather History & Observations

Time (AKDT) Temp. Windchill Dew Point Humidity Pressure Visibility Wind Dir Wind Speed Gust Speed Precip Events Conditions
12:53 AM 10.9 °F 1.4 °F 8.1 °F 88% 30.02 in 9.0 mi ESE 5.8 mph - 0.00 in Snow Light Snow
1:53 AM 12.0 °F 4.1 °F 10.0 °F 92% 30.01 in 10.0 mi SE 4.6 mph - 0.00 in   Overcast
2:53 AM 12.9 °F 3.8 °F 10.0 °F 88% 30.01 in 10.0 mi SE 5.8 mph - N/A   Overcast
3:53 AM 14.0 °F 5.1 °F 10.9 °F 88% 29.99 in 10.0 mi SSE 5.8 mph - N/A   Overcast
4:53 AM 12.0 °F 0.5 °F 9.0 °F 88% 29.96 in 10.0 mi South 8.1 mph - N/A   Mostly Cloudy
5:53 AM 7.0 °F -4.5 °F 5.0 °F 92% 29.95 in 10.0 mi SSW 6.9 mph - N/A   Scattered Clouds
6:53 AM -0.0 °F -14.2 °F -2.9 °F 88% 29.93 in 10.0 mi South 8.1 mph - N/A   Clear
7:53 AM -4.0 °F -16.3 °F -7.1 °F 87% 29.93 in 10.0 mi West 5.8 mph - N/A   Clear
8:53 AM -2.0 °F -13.9 °F -6.0 °F 83% 29.92 in 10.0 mi SSW 5.8 mph - N/A   Clear
9:53 AM -7.1 °F -18.1 °F -9.9 °F 87% 29.90 in 10.0 mi ESE 4.6 mph - N/A   Clear
10:53 AM -5.1 °F -17.6 °F -8.0 °F 87% 29.89 in 10.0 mi SE 5.8 mph - N/A   Scattered Clouds
11:53 AM -5.1 °F -20.4 °F -8.0 °F 87% 29.88 in 10.0 mi South 8.1 mph - N/A   Scattered Clouds
12:53 PM 1.0 °F -11.7 °F -4.0 °F 79% 29.86 in 10.0 mi SSW 6.9 mph - N/A   Mostly Cloudy
1:53 PM -0.0 °F -11.6 °F -4.0 °F 83% 29.85 in 10.0 mi South 5.8 mph - N/A   Mostly Cloudy
2:53 PM 1.0 °F -12.9 °F -2.9 °F 83% 29.83 in 10.0 mi South 8.1 mph - N/A   Mostly Cloudy
3:53 PM 3.9 °F -6.9 °F -0.9 °F 80% 29.82 in 10.0 mi South 5.8 mph - N/A   Mostly Cloudy
4:53 PM 5.0 °F -6.9 °F -0.0 °F 80% 29.81 in 10.0 mi South 6.9 mph - N/A   Mostly Cloudy
5:53 PM 3.0 °F -11.5 °F -0.9 °F 84% 29.80 in 10.0 mi South 9.2 mph - N/A   Mostly Cloudy
6:53 PM 5.0 °F -10.0 °F -0.0 °F 80% 29.79 in 10.0 mi South 10.4 mph - N/A   Scattered Clouds
7:53 PM 1.9 °F -12.9 °F -2.9 °F 80% 29.79 in 10.0 mi South 9.2 mph - N/A   Scattered Clouds
8:53 PM 1.0 °F -14.0 °F -2.9 °F 83% 29.78 in 10.0 mi SSW 9.2 mph - N/A   Partly Cloudy
9:53 PM 1.0 °F -12.9 °F -4.0 °F 79% 29.77 in 10.0 mi South 8.1 mph - N/A   Clear
10:53 PM 1.0 °F -14.9 °F -4.0 °F 79% 29.76 in 10.0 mi SSW 10.4 mph - N/A   Clear
11:53 PM 1.0 °F -15.8 °F -4.0 °F 79% 29.76 in 10.0 mi SW 11.5 mph - N/A   Clear